KLM5PA EHAM-LEZL

Flight info

Callsign KLM5PA
Flight time 2h 41m
Altitude 23000
Route WOODY N872 CIV/N0437F350 DCT KOVIN DCT DUCRA DCT RESMI DCT DEKOD DCT DISAK DCT ARKIP DCT ARNAV DCT LMG/N0440F370 DCT UVELI DCT OSMOB DCT ARVID DCT PPN DCT NOLSA DCT ALEPO DCT VASUM DCT BANEV DCT BAN DCT GOTOR DCT KAMPO DCT MONTO DCT MOLIN DCT HIJ
Aircraft A21N/M-SDE2E3FGHIRWXY/LB1

Departure

Time 2026-04-29 10:32
Airport Amsterdam Airport Schiphol (EHAM)

Arrival

Time 2026-04-29 13:14
Airport Seville Airport (LEZL)
Time Latitude Longitude Altitude Speed Heading
2026-04-29 09:54 52.30535 4.76509 2 ft 0 kts 59°
2026-04-29 10:16 52.30535 4.76507 2 ft 2 kts 59°
2026-04-29 10:16 52.30524 4.76472 2 ft 4 kts 76°
2026-04-29 10:16 52.30523 4.76431 2 ft 4 kts 115°
2026-04-29 10:16 52.30533 4.76408 2 ft 0 kts 148°
2026-04-29 10:19 52.30517 4.76424 2 ft 10 kts 147°
2026-04-29 10:19 52.30437 4.76508 2 ft 14 kts 148°
2026-04-29 10:19 52.30353 4.76590 2 ft 13 kts 166°
2026-04-29 10:20 52.30290 4.76510 2 ft 12 kts 237°
2026-04-29 10:20 52.30245 4.76392 2 ft 12 kts 239°
2026-04-29 10:20 52.30179 4.76216 2 ft 26 kts 238°
2026-04-29 10:20 52.30065 4.75921 2 ft 32 kts 237°
2026-04-29 10:21 52.29947 4.75617 2 ft 32 kts 237°
2026-04-29 10:21 52.29837 4.75317 2 ft 30 kts 252°
2026-04-29 10:21 52.29923 4.75045 2 ft 28 kts 311°
2026-04-29 10:21 52.30049 4.74812 3 ft 27 kts 311°
2026-04-29 10:22 52.30181 4.74567 13 ft 30 kts 311°
2026-04-29 10:22 52.30319 4.74308 4 ft 33 kts 310°
2026-04-29 10:22 52.30483 4.74204 2 ft 22 kts
2026-04-29 10:22 52.30635 4.74213 2 ft 25 kts
2026-04-29 10:23 52.30831 4.74232 2 ft 29 kts
2026-04-29 10:23 52.31033 4.74250 2 ft 31 kts
2026-04-29 10:23 52.31247 4.74270 2 ft 30 kts
2026-04-29 10:23 52.31455 4.74289 2 ft 30 kts
2026-04-29 10:24 52.31660 4.74309 2 ft 29 kts
2026-04-29 10:24 52.31859 4.74327 2 ft 28 kts
2026-04-29 10:24 52.32024 4.74282 2 ft 22 kts 292°
2026-04-29 10:24 52.32037 4.74037 1 ft 22 kts 273°
2026-04-29 10:25 52.32046 4.73790 2 ft 21 kts 273°
2026-04-29 10:25 52.32054 4.73548 2 ft 21 kts 273°
2026-04-29 10:25 52.32106 4.73332 2 ft 21 kts 319°
2026-04-29 10:25 52.32216 4.73177 2 ft 21 kts 319°
2026-04-29 10:26 52.32326 4.73022 2 ft 21 kts 319°
2026-04-29 10:26 52.32437 4.72867 2 ft 21 kts 319°
2026-04-29 10:26 52.32556 4.72699 2 ft 25 kts 319°
2026-04-29 10:26 52.32685 4.72509 2 ft 24 kts 309°
2026-04-29 10:27 52.32909 4.72095 2 ft 24 kts 311°
2026-04-29 10:27 52.33019 4.71891 2 ft 24 kts 311°
2026-04-29 10:27 52.33129 4.71687 2 ft 24 kts 306°
2026-04-29 10:28 52.33104 4.71459 2 ft 22 kts 220°
2026-04-29 10:28 52.32989 4.71293 2 ft 22 kts 221°
2026-04-29 10:28 52.32892 4.71155 2 ft 13 kts 222°
2026-04-29 10:28 52.32862 4.71044 1 ft 0 kts 271°
2026-04-29 10:29 52.32862 4.71042 1 ft 1 kts 271°
2026-04-29 10:29 52.32862 4.70998 1 ft 7 kts 271°
2026-04-29 10:30 52.32875 4.70911 1 ft 8 kts 306°
2026-04-29 10:30 52.32915 4.70897 1 ft 6 kts
2026-04-29 10:30 52.32923 4.70898 0 ft 0 kts
2026-04-29 10:31 52.32932 4.70899 0 ft 11 kts
2026-04-29 10:31 52.33224 4.70927 -1 ft 72 kts
2026-04-29 10:32 52.33928 4.70989 3 ft 132 kts
2026-04-29 10:32 52.35002 4.71083 149 ft 164 kts 10°
2026-04-29 10:32 52.36100 4.71242 870 ft 154 kts 12°
2026-04-29 10:32 52.37174 4.71362 1547 ft 158 kts 11°
2026-04-29 10:33 52.38299 4.71490 2049 ft 169 kts 14°
2026-04-29 10:33 52.39551 4.71662 2467 ft 193 kts 14°
2026-04-29 10:33 52.40900 4.72142 2880 ft 201 kts 34°
2026-04-29 10:33 52.41810 4.73778 3422 ft 199 kts 74°
2026-04-29 10:34 52.42001 4.76009 4250 ft 200 kts 92°
2026-04-29 10:34 52.41600 4.78203 5064 ft 208 kts 117°
2026-04-29 10:34 52.40514 4.79839 5787 ft 222 kts 147°
2026-04-29 10:34 52.39012 4.80684 6246 ft 232 kts 159°
2026-04-29 10:35 52.37443 4.81255 6370 ft 235 kts 161°
2026-04-29 10:35 52.35840 4.81801 6373 ft 236 kts 161°
2026-04-29 10:35 52.34237 4.82343 6375 ft 237 kts 162°
2026-04-29 10:35 52.32584 4.82832 6383 ft 248 kts 163°
2026-04-29 10:36 52.30820 4.83347 6354 ft 266 kts 164°
2026-04-29 10:36 52.28979 4.83873 6371 ft 270 kts 164°
2026-04-29 10:36 52.27119 4.84399 6421 ft 272 kts 165°
2026-04-29 10:36 52.25217 4.84737 6972 ft 279 kts 173°
2026-04-29 10:37 52.23270 4.84763 7894 ft 281 kts 175°
2026-04-29 10:37 52.21306 4.84723 8818 ft 283 kts 176°
2026-04-29 10:37 52.19321 4.84675 9695 ft 287 kts 176°
2026-04-29 10:37 52.17304 4.84627 10509 ft 293 kts 176°
2026-04-29 10:38 52.15205 4.84585 10928 ft 312 kts 176°
2026-04-29 10:38 52.12957 4.84544 11260 ft 334 kts 177°
2026-04-29 10:38 52.10575 4.84496 11709 ft 348 kts 177°
2026-04-29 10:38 52.08126 4.84442 12413 ft 355 kts 177°
2026-04-29 10:39 52.05647 4.84386 13179 ft 360 kts 177°
2026-04-29 10:39 52.03126 4.84226 13955 ft 366 kts 183°
2026-04-29 10:39 52.00634 4.83174 14653 ft 376 kts 199°
2026-04-29 10:39 51.98220 4.81414 15323 ft 382 kts 203°
2026-04-29 10:40 51.95822 4.79507 15998 ft 387 kts 203°
2026-04-29 10:40 51.93393 4.77565 16688 ft 391 kts 203°
2026-04-29 10:40 51.90939 4.75618 17356 ft 395 kts 203°
2026-04-29 10:40 51.88453 4.73659 17990 ft 400 kts 203°
2026-04-29 10:41 51.85933 4.71683 18607 ft 404 kts 203°
2026-04-29 10:41 51.83386 4.69692 19164 ft 408 kts 203°
2026-04-29 10:41 51.80817 4.67688 19742 ft 411 kts 203°
2026-04-29 10:41 51.78233 4.65677 20304 ft 414 kts 203°
2026-04-29 10:42 51.75624 4.63648 20868 ft 417 kts 203°
2026-04-29 10:42 51.73000 4.61612 21431 ft 420 kts 203°
2026-04-29 10:42 51.70354 4.59561 21981 ft 423 kts 202°
2026-04-29 10:42 51.67687 4.57496 22505 ft 426 kts 202°
2026-04-29 10:43 51.65005 4.55423 23026 ft 429 kts 202°
2026-04-29 10:43 51.62303 4.53337 23531 ft 432 kts 202°
2026-04-29 10:43 51.59580 4.51238 23994 ft 435 kts 202°
2026-04-29 10:43 51.56839 4.49128 24371 ft 439 kts 202°
2026-04-29 10:44 51.54073 4.47002 24743 ft 442 kts 202°
2026-04-29 10:44 51.51290 4.44865 25102 ft 445 kts 202°
2026-04-29 10:44 51.48486 4.42715 25474 ft 448 kts 202°
2026-04-29 10:44 51.45668 4.40556 25854 ft 450 kts 202°
2026-04-29 10:45 51.42836 4.38391 26203 ft 453 kts 201°
2026-04-29 10:45 51.39977 4.36209 26538 ft 456 kts 201°
2026-04-29 10:45 51.37111 4.34026 26870 ft 459 kts 201°
2026-04-29 10:45 51.34219 4.31829 27190 ft 461 kts 201°
2026-04-29 10:46 51.31313 4.29624 27516 ft 464 kts 201°
2026-04-29 10:46 51.28389 4.27405 27814 ft 466 kts 201°
2026-04-29 10:46 51.25450 4.25175 28117 ft 469 kts 201°
2026-04-29 10:46 51.22500 4.22939 28426 ft 471 kts 201°
2026-04-29 10:47 51.19530 4.20690 28710 ft 473 kts 201°
2026-04-29 10:47 51.16518 4.18570 28985 ft 473 kts 196°
2026-04-29 10:47 51.13439 4.16734 29347 ft 473 kts 195°
2026-04-29 10:47 51.10344 4.14971 29749 ft 471 kts 194°
2026-04-29 10:48 51.07253 4.13260 30127 ft 471 kts 194°
2026-04-29 10:48 51.04157 4.11572 30466 ft 470 kts 194°
2026-04-29 10:48 51.01059 4.09893 30792 ft 469 kts 194°
2026-04-29 10:48 50.97975 4.08223 31121 ft 468 kts 194°
2026-04-29 10:49 50.94900 4.06555 31454 ft 466 kts 194°
2026-04-29 10:49 50.91830 4.04889 31766 ft 465 kts 194°
2026-04-29 10:49 50.88772 4.03227 32066 ft 465 kts 195°
2026-04-29 10:49 50.85736 4.01463 32357 ft 465 kts 197°
2026-04-29 10:50 50.82734 3.99586 32641 ft 464 kts 198°
2026-04-29 10:50 50.79743 3.97650 32947 ft 462 kts 199°
2026-04-29 10:50 50.76795 3.95720 33503 ft 455 kts 199°
2026-04-29 10:50 50.73887 3.93820 33894 ft 451 kts 199°
2026-04-29 10:51 50.70989 3.91942 34111 ft 451 kts 199°
2026-04-29 10:51 50.68082 3.90074 34276 ft 451 kts 199°
2026-04-29 10:51 50.65169 3.88215 34441 ft 451 kts 199°
2026-04-29 10:51 50.62263 3.86367 34577 ft 451 kts 199°
2026-04-29 10:52 50.59344 3.84516 34688 ft 452 kts 199°
2026-04-29 10:52 50.56430 3.82646 34854 ft 452 kts 201°
2026-04-29 10:52 50.53534 3.80714 34996 ft 452 kts 201°
2026-04-29 10:53 50.47736 3.76746 35169 ft 454 kts 202°
2026-04-29 10:53 50.41943 3.72767 35207 ft 455 kts 202°
2026-04-29 10:54 50.37120 3.69477 35208 ft 453 kts 201°
2026-04-29 10:54 50.30431 3.64943 35199 ft 448 kts 203°
2026-04-29 10:55 50.24729 3.61097 35190 ft 446 kts 202°
2026-04-29 10:55 50.19949 3.57880 35191 ft 446 kts 202°
2026-04-29 10:56 50.14254 3.54054 35186 ft 446 kts 203°
2026-04-29 10:56 50.08586 3.50263 35175 ft 440 kts 205°
2026-04-29 10:57 50.03008 3.46532 35175 ft 438 kts 205°
2026-04-29 10:57 49.97401 3.42792 35168 ft 438 kts 206°
2026-04-29 10:58 49.91796 3.39064 35165 ft 438 kts 206°
2026-04-29 10:58 49.86195 3.35352 35162 ft 437 kts 206°
2026-04-29 10:59 49.80610 3.31657 35157 ft 436 kts 206°
2026-04-29 10:59 49.75025 3.27971 35157 ft 436 kts 206°
2026-04-29 11:00 49.69437 3.24292 35152 ft 436 kts 206°
2026-04-29 11:00 49.63840 3.20614 35148 ft 437 kts 206°
2026-04-29 11:01 49.58242 3.16947 35148 ft 437 kts 206°
2026-04-29 11:01 49.52640 3.13289 35142 ft 437 kts 206°
2026-04-29 11:02 49.47251 3.09164 35137 ft 429 kts 214°
2026-04-29 11:02 49.42209 3.04237 35139 ft 430 kts 217°
2026-04-29 11:03 49.37229 2.99162 35134 ft 430 kts 217°
2026-04-29 11:03 49.32252 2.94080 35135 ft 430 kts 217°
2026-04-29 11:04 49.27263 2.89022 35128 ft 430 kts 217°
2026-04-29 11:04 49.22264 2.83982 35124 ft 430 kts 216°
2026-04-29 11:05 49.17262 2.78955 35130 ft 430 kts 216°
2026-04-29 11:05 49.12255 2.73938 35127 ft 430 kts 216°
2026-04-29 11:06 49.07280 2.68961 35128 ft 430 kts 216°
2026-04-29 11:06 49.02268 2.63960 35125 ft 431 kts 216°
2026-04-29 11:07 48.97260 2.58973 35128 ft 428 kts 215°
2026-04-29 11:07 48.92284 2.54033 35132 ft 427 kts 215°
2026-04-29 11:08 48.87302 2.49099 35127 ft 427 kts 215°
2026-04-29 11:08 48.82324 2.44180 35102 ft 427 kts 215°
2026-04-29 11:09 48.77342 2.39268 35104 ft 427 kts 215°
2026-04-29 11:09 48.72358 2.34366 35101 ft 427 kts 215°
2026-04-29 11:10 48.67366 2.29468 35100 ft 427 kts 215°
2026-04-29 11:10 48.62375 2.24584 35099 ft 427 kts 215°
2026-04-29 11:11 48.57264 2.20061 35092 ft 427 kts 205°
2026-04-29 11:11 48.51567 2.17415 35086 ft 430 kts 196°
2026-04-29 11:12 48.45714 2.15466 35071 ft 431 kts 194°
2026-04-29 11:12 48.39860 2.13652 35058 ft 428 kts 194°
2026-04-29 11:13 48.34085 2.11842 35051 ft 426 kts 194°
2026-04-29 11:13 48.28213 2.10525 35049 ft 429 kts 183°
2026-04-29 11:14 48.22232 2.11199 35048 ft 433 kts 176°
2026-04-29 11:14 48.16264 2.12429 35043 ft 432 kts 176°
2026-04-29 11:15 48.10308 2.12496 35044 ft 426 kts 187°
2026-04-29 11:15 48.04416 2.11552 35046 ft 426 kts 190°
2026-04-29 11:16 47.98540 2.10393 35048 ft 426 kts 190°
2026-04-29 11:16 47.92676 2.09226 35048 ft 425 kts 190°
2026-04-29 11:17 47.86812 2.08090 35048 ft 425 kts 190°
2026-04-29 11:17 47.80950 2.06973 35018 ft 425 kts 190°
2026-04-29 11:18 47.75084 2.05861 35016 ft 425 kts 190°
2026-04-29 11:18 47.69226 2.04753 35008 ft 424 kts 190°
2026-04-29 11:19 47.63410 2.03350 35007 ft 422 kts 198°
2026-04-29 11:19 47.57913 2.00557 34994 ft 420 kts 202°
2026-04-29 11:20 47.52440 1.97401 34984 ft 419 kts 204°
2026-04-29 11:20 47.47066 1.94241 34988 ft 418 kts 204°
2026-04-29 11:21 47.41648 1.91084 34984 ft 418 kts 203°
2026-04-29 11:21 47.36225 1.87954 34977 ft 418 kts 204°
2026-04-29 11:22 47.30825 1.84852 34992 ft 416 kts 203°
2026-04-29 11:22 47.25437 1.81763 34993 ft 415 kts 203°
2026-04-29 11:23 47.20053 1.78685 34991 ft 415 kts 203°
2026-04-29 11:23 47.14660 1.75634 34989 ft 415 kts 203°
2026-04-29 11:24 47.09282 1.72610 34976 ft 413 kts 203°
2026-04-29 11:24 47.03911 1.69594 34967 ft 413 kts 203°
2026-04-29 11:25 46.98540 1.66583 34966 ft 413 kts 203°
2026-04-29 11:25 46.93169 1.63577 34968 ft 413 kts 203°
2026-04-29 11:26 46.85146 1.59100 34976 ft 410 kts 203°
2026-04-29 11:26 46.79810 1.56130 34964 ft 410 kts 203°
2026-04-29 11:27 46.74473 1.53166 34966 ft 410 kts 203°
2026-04-29 11:27 46.69138 1.50209 34963 ft 410 kts 203°
2026-04-29 11:28 46.63801 1.47257 34977 ft 410 kts 203°
2026-04-29 11:28 46.58462 1.44311 34962 ft 410 kts 203°
2026-04-29 11:29 46.53162 1.41392 34955 ft 409 kts 203°
2026-04-29 11:29 46.47851 1.38474 34966 ft 408 kts 203°
2026-04-29 11:30 46.42545 1.35564 34966 ft 408 kts 203°
2026-04-29 11:30 46.37239 1.32660 34965 ft 408 kts 203°
2026-04-29 11:31 46.31937 1.29764 34958 ft 407 kts 202°
2026-04-29 11:31 46.26634 1.26873 34954 ft 407 kts 202°
2026-04-29 11:32 46.21338 1.23993 34943 ft 407 kts 202°
2026-04-29 11:32 46.16038 1.21116 34934 ft 407 kts 202°
2026-04-29 11:33 46.10745 1.18250 34943 ft 405 kts 202°
2026-04-29 11:33 46.05480 1.15405 34941 ft 403 kts 202°
2026-04-29 11:34 46.00228 1.12571 34940 ft 403 kts 202°
2026-04-29 11:34 45.94975 1.09742 34940 ft 403 kts 202°
2026-04-29 11:35 45.89722 1.06920 34936 ft 403 kts 202°
2026-04-29 11:35 45.84481 1.04089 34939 ft 402 kts 204°
2026-04-29 11:36 45.79656 1.00117 34940 ft 400 kts 217°
2026-04-29 11:36 45.75294 0.95145 34934 ft 401 kts 219°
2026-04-29 11:37 45.71029 0.89993 34930 ft 401 kts 220°
2026-04-29 11:37 45.66761 0.84830 34927 ft 401 kts 220°
2026-04-29 11:38 45.62485 0.79709 34933 ft 401 kts 219°
2026-04-29 11:38 45.58201 0.74611 34929 ft 400 kts 219°
2026-04-29 11:39 45.53922 0.69535 34925 ft 400 kts 219°
2026-04-29 11:39 45.49642 0.64467 34927 ft 400 kts 219°
2026-04-29 11:40 45.45358 0.59404 34920 ft 400 kts 219°
2026-04-29 11:40 45.41074 0.54349 34923 ft 400 kts 219°
2026-04-29 11:41 45.36790 0.49305 34918 ft 400 kts 219°
2026-04-29 11:41 45.32491 0.44254 34919 ft 401 kts 219°
2026-04-29 11:42 45.28919 0.40065 34915 ft 401 kts 219°
2026-04-29 11:42 45.24620 0.35033 34915 ft 400 kts 218°
2026-04-29 11:43 45.20331 0.30022 34917 ft 399 kts 218°
2026-04-29 11:43 45.16037 0.25016 34914 ft 400 kts 218°
2026-04-29 11:44 45.11732 0.20007 34911 ft 401 kts 218°
2026-04-29 11:44 45.07423 0.15003 34911 ft 401 kts 218°
2026-04-29 11:45 45.03111 0.10006 34913 ft 401 kts 218°
2026-04-29 11:45 44.98796 0.05016 34901 ft 401 kts 218°
2026-04-29 11:46 44.94469 0.00023 34946 ft 402 kts 218°
2026-04-29 11:46 44.90138 -0.04966 34906 ft 402 kts 218°
2026-04-29 11:47 44.85837 -0.09909 34905 ft 401 kts 217°
2026-04-29 11:47 44.81504 -0.14879 34905 ft 401 kts 217°
2026-04-29 11:48 44.77172 -0.19839 34903 ft 401 kts 217°
2026-04-29 11:48 44.72839 -0.24791 34904 ft 401 kts 217°
2026-04-29 11:49 44.68503 -0.29734 34905 ft 401 kts 217°
2026-04-29 11:49 44.64006 -0.34341 34903 ft 400 kts 209°
2026-04-29 11:50 44.59140 -0.38137 34907 ft 400 kts 207°
2026-04-29 11:50 44.54202 -0.41762 34905 ft 401 kts 206°
2026-04-29 11:51 44.49253 -0.45358 34900 ft 401 kts 207°
2026-04-29 11:51 44.44307 -0.48965 34904 ft 401 kts 207°
2026-04-29 11:52 44.39364 -0.52578 34903 ft 401 kts 206°
2026-04-29 11:52 44.34413 -0.56193 34900 ft 401 kts 206°
2026-04-29 11:53 44.29462 -0.59801 34900 ft 401 kts 206°
2026-04-29 11:53 44.24507 -0.63405 34904 ft 401 kts 206°
2026-04-29 11:54 44.19556 -0.66998 34900 ft 401 kts 206°
2026-04-29 11:54 44.14597 -0.70590 34906 ft 401 kts 206°
2026-04-29 11:55 44.09640 -0.74174 34903 ft 402 kts 206°
2026-04-29 11:55 44.04716 -0.77726 34909 ft 401 kts 206°
2026-04-29 11:56 43.99757 -0.81299 34903 ft 401 kts 206°
2026-04-29 11:56 43.94797 -0.84866 34903 ft 401 kts 206°
2026-04-29 11:57 43.89837 -0.88425 34902 ft 401 kts 206°
2026-04-29 11:57 43.84877 -0.91978 34898 ft 401 kts 206°
2026-04-29 11:58 43.79915 -0.95524 34883 ft 402 kts 206°
2026-04-29 11:58 43.74945 -0.99070 34891 ft 402 kts 206°
2026-04-29 11:59 43.69971 -1.02612 34884 ft 402 kts 206°
2026-04-29 11:59 43.64997 -1.06149 34884 ft 402 kts 206°
2026-04-29 12:00 43.60021 -1.09680 34884 ft 402 kts 206°
2026-04-29 12:00 43.55036 -1.13211 34882 ft 403 kts 205°
2026-04-29 12:01 43.50053 -1.16731 34883 ft 402 kts 205°
2026-04-29 12:01 43.45118 -1.20213 34880 ft 401 kts 205°
2026-04-29 12:02 43.40140 -1.23719 34883 ft 402 kts 205°
2026-04-29 12:02 43.35162 -1.27219 34881 ft 402 kts 205°
2026-04-29 12:03 43.30176 -1.30717 34878 ft 402 kts 205°
2026-04-29 12:03 43.25192 -1.34208 34884 ft 402 kts 205°
2026-04-29 12:04 43.20206 -1.37692 34886 ft 402 kts 205°
2026-04-29 12:04 43.15223 -1.41168 34890 ft 402 kts 205°
2026-04-29 12:05 43.10240 -1.44639 34892 ft 402 kts 205°
2026-04-29 12:05 43.05258 -1.48107 34898 ft 402 kts 205°
2026-04-29 12:06 43.00280 -1.51572 34886 ft 402 kts 205°
2026-04-29 12:06 42.95284 -1.55044 34898 ft 404 kts 205°
2026-04-29 12:07 42.90277 -1.58518 34896 ft 404 kts 205°
2026-04-29 12:07 42.85269 -1.61986 34911 ft 404 kts 205°
2026-04-29 12:08 42.80256 -1.65451 34910 ft 404 kts 205°
2026-04-29 12:08 42.75246 -1.68907 34913 ft 404 kts 205°
2026-04-29 12:09 42.70222 -1.72337 34911 ft 404 kts 205°
2026-04-29 12:09 42.65188 -1.75723 34912 ft 404 kts 205°
2026-04-29 12:10 42.60155 -1.79098 34909 ft 403 kts 205°
2026-04-29 12:10 42.55120 -1.82472 34908 ft 404 kts 205°
2026-04-29 12:11 42.50085 -1.85844 34902 ft 404 kts 205°
2026-04-29 12:11 42.45049 -1.89211 34901 ft 404 kts 205°
2026-04-29 12:12 42.40010 -1.92572 34898 ft 404 kts 205°
2026-04-29 12:12 42.34958 -1.95936 34899 ft 405 kts 205°
2026-04-29 12:13 42.29903 -1.99302 34888 ft 405 kts 205°
2026-04-29 12:13 42.24847 -2.02664 34890 ft 405 kts 205°
2026-04-29 12:14 42.19817 -2.05996 34888 ft 405 kts 205°
2026-04-29 12:14 42.14722 -2.09362 34889 ft 405 kts 205°
2026-04-29 12:15 42.09661 -2.12701 34888 ft 405 kts 205°
2026-04-29 12:15 42.04639 -2.16009 34891 ft 405 kts 205°
2026-04-29 12:16 41.99580 -2.19334 34897 ft 405 kts 205°
2026-04-29 12:16 41.94514 -2.22657 34896 ft 406 kts 205°
2026-04-29 12:17 41.89437 -2.25983 34901 ft 407 kts 205°
2026-04-29 12:17 41.84351 -2.29308 34908 ft 407 kts 206°
2026-04-29 12:18 41.79273 -2.32623 34893 ft 405 kts 205°
2026-04-29 12:18 41.74204 -2.35926 34895 ft 405 kts 205°
2026-04-29 12:19 41.69126 -2.39229 34897 ft 406 kts 205°
2026-04-29 12:19 41.64042 -2.42530 34899 ft 406 kts 205°
2026-04-29 12:20 41.58957 -2.45826 34896 ft 406 kts 205°
2026-04-29 12:20 41.53872 -2.49116 34897 ft 406 kts 205°
2026-04-29 12:21 41.48782 -2.52403 34900 ft 406 kts 205°
2026-04-29 12:21 41.43693 -2.55684 34901 ft 406 kts 205°
2026-04-29 12:22 41.38603 -2.58960 34903 ft 406 kts 205°
2026-04-29 12:22 41.33524 -2.62259 34898 ft 406 kts 208°
2026-04-29 12:23 41.28747 -2.66282 34903 ft 407 kts 213°
2026-04-29 12:23 41.24093 -2.70531 34905 ft 410 kts 214°
2026-04-29 12:24 41.19408 -2.74871 34905 ft 411 kts 214°
2026-04-29 12:24 41.14712 -2.79204 34907 ft 411 kts 214°
2026-04-29 12:25 41.10010 -2.83520 34908 ft 411 kts 214°
2026-04-29 12:26 41.02933 -2.89988 34910 ft 413 kts 214°
2026-04-29 12:26 40.98205 -2.94300 34907 ft 413 kts 214°
2026-04-29 12:27 40.93474 -2.98608 34907 ft 413 kts 214°
2026-04-29 12:27 40.88744 -3.02908 34909 ft 413 kts 214°
2026-04-29 12:28 40.84013 -3.07200 34908 ft 412 kts 215°
2026-04-29 12:28 40.79282 -3.11486 34904 ft 412 kts 215°
2026-04-29 12:29 40.74552 -3.15763 34903 ft 412 kts 215°
2026-04-29 12:29 40.69847 -3.20010 34899 ft 412 kts 215°
2026-04-29 12:30 40.65114 -3.24275 34896 ft 412 kts 215°
2026-04-29 12:30 40.60378 -3.28535 34892 ft 412 kts 215°
2026-04-29 12:31 40.55643 -3.32786 34888 ft 412 kts 215°
2026-04-29 12:31 40.50901 -3.37037 34884 ft 412 kts 215°
2026-04-29 12:32 40.46162 -3.41278 34885 ft 412 kts 215°
2026-04-29 12:32 40.42186 -3.44829 34873 ft 412 kts 216°
2026-04-29 12:33 40.37495 -3.49012 34881 ft 409 kts 216°
2026-04-29 12:33 40.32787 -3.53204 34886 ft 409 kts 216°
2026-04-29 12:34 40.28080 -3.57389 34885 ft 409 kts 216°
2026-04-29 12:34 40.23371 -3.61568 34883 ft 409 kts 216°
2026-04-29 12:35 40.18662 -3.65739 34881 ft 408 kts 216°
2026-04-29 12:35 40.13971 -3.69887 34886 ft 406 kts 216°
2026-04-29 12:36 40.09293 -3.74017 34887 ft 406 kts 216°
2026-04-29 12:36 40.04619 -3.78137 34892 ft 405 kts 216°
2026-04-29 12:37 39.99945 -3.82250 34899 ft 405 kts 216°
2026-04-29 12:37 39.95273 -3.86352 34883 ft 404 kts 217°
2026-04-29 12:38 39.90636 -3.90416 34888 ft 401 kts 217°
2026-04-29 12:38 39.86016 -3.94461 34892 ft 400 kts 217°
2026-04-29 12:39 39.81397 -3.98500 34891 ft 400 kts 217°
2026-04-29 12:39 39.76776 -4.02533 34897 ft 400 kts 217°
2026-04-29 12:40 39.72185 -4.06532 34890 ft 400 kts 217°
2026-04-29 12:40 39.67572 -4.10544 34894 ft 399 kts 217°
2026-04-29 12:41 39.62959 -4.14550 34892 ft 399 kts 217°
2026-04-29 12:41 39.58347 -4.18548 34898 ft 399 kts 217°
2026-04-29 12:42 39.53730 -4.22544 34903 ft 399 kts 217°
2026-04-29 12:42 39.49111 -4.26535 34900 ft 399 kts 218°
2026-04-29 12:43 39.44504 -4.30508 34899 ft 397 kts 218°
2026-04-29 12:43 39.39909 -4.34466 34900 ft 397 kts 218°
2026-04-29 12:44 39.35307 -4.38424 34898 ft 397 kts 218°
2026-04-29 12:44 39.30705 -4.42375 34890 ft 397 kts 218°
2026-04-29 12:45 39.26103 -4.46319 34887 ft 397 kts 218°
2026-04-29 12:45 39.21500 -4.50258 34900 ft 397 kts 218°
2026-04-29 12:46 39.16901 -4.54188 34897 ft 397 kts 218°
2026-04-29 12:46 39.12293 -4.58120 34908 ft 397 kts 218°
2026-04-29 12:47 39.07706 -4.62029 34895 ft 395 kts 217°
2026-04-29 12:47 39.03124 -4.65924 34893 ft 394 kts 217°
2026-04-29 12:48 38.98543 -4.69813 34896 ft 395 kts 218°
2026-04-29 12:48 38.93955 -4.73700 34894 ft 395 kts 218°
2026-04-29 12:49 38.89407 -4.77546 34241 ft 394 kts 218°
2026-04-29 12:49 38.87112 -4.79487 33454 ft 396 kts 218°
2026-04-29 12:49 38.84809 -4.81432 32764 ft 395 kts 218°
2026-04-29 12:49 38.82527 -4.83356 32267 ft 389 kts 218°
2026-04-29 12:50 38.80283 -4.85244 31854 ft 382 kts 218°
2026-04-29 12:50 38.78081 -4.87097 31386 ft 377 kts 218°
2026-04-29 12:50 38.75902 -4.88931 30942 ft 372 kts 218°
2026-04-29 12:50 38.73753 -4.90740 30501 ft 367 kts 218°
2026-04-29 12:51 38.71631 -4.92526 30061 ft 363 kts 218°
2026-04-29 12:51 38.69532 -4.94289 29567 ft 359 kts 218°
2026-04-29 12:51 38.67456 -4.96031 29136 ft 354 kts 218°
2026-04-29 12:51 38.65412 -4.97745 28690 ft 349 kts 218°
2026-04-29 12:52 38.63394 -4.99437 28254 ft 344 kts 218°
2026-04-29 12:52 38.61405 -5.01103 27839 ft 339 kts 218°
2026-04-29 12:52 38.59441 -5.02747 27412 ft 335 kts 218°
2026-04-29 12:52 38.57504 -5.04368 26977 ft 331 kts 217°
2026-04-29 12:53 38.55590 -5.05968 26585 ft 327 kts 217°
2026-04-29 12:53 38.53697 -5.07551 26138 ft 325 kts 217°
2026-04-29 12:53 38.51790 -5.09115 25743 ft 327 kts 214°
2026-04-29 12:53 38.49727 -5.10357 25328 ft 330 kts 205°
2026-04-29 12:54 38.47547 -5.11288 24902 ft 330 kts 202°
2026-04-29 12:54 38.45352 -5.12145 24473 ft 329 kts 201°
2026-04-29 12:54 38.43172 -5.12986 24058 ft 326 kts 201°
2026-04-29 12:54 38.41006 -5.13826 23640 ft 324 kts 201°
2026-04-29 12:55 38.38858 -5.14662 23176 ft 322 kts 201°
2026-04-29 12:55 38.36723 -5.15494 22741 ft 320 kts 201°
2026-04-29 12:55 38.34605 -5.16321 22334 ft 318 kts 201°
2026-04-29 12:55 38.32497 -5.17145 21911 ft 316 kts 201°
2026-04-29 12:56 38.30396 -5.17966 21500 ft 315 kts 200°
2026-04-29 12:56 38.28313 -5.18779 21075 ft 313 kts 200°
2026-04-29 12:56 38.26232 -5.19591 20663 ft 311 kts 200°
2026-04-29 12:56 38.24169 -5.20396 20248 ft 310 kts 200°
2026-04-29 12:57 38.22117 -5.21196 19849 ft 308 kts 200°
2026-04-29 12:57 38.20101 -5.21982 19445 ft 306 kts 200°
2026-04-29 12:57 38.18071 -5.22772 19038 ft 304 kts 200°
2026-04-29 12:57 38.16052 -5.23558 18632 ft 303 kts 199°
2026-04-29 12:58 38.14039 -5.24341 18226 ft 302 kts 199°
2026-04-29 12:58 38.12040 -5.25118 17774 ft 299 kts 199°
2026-04-29 12:58 38.10054 -5.25889 17388 ft 298 kts 199°
2026-04-29 12:58 38.08082 -5.26655 16978 ft 296 kts 199°
2026-04-29 12:59 38.06117 -5.27417 16571 ft 294 kts 199°
2026-04-29 12:59 38.04167 -5.28173 16180 ft 292 kts 199°
2026-04-29 12:59 38.02225 -5.28927 15782 ft 291 kts 199°
2026-04-29 12:59 38.00291 -5.29677 15379 ft 290 kts 199°
2026-04-29 13:00 37.98368 -5.30421 14997 ft 288 kts 199°
2026-04-29 13:00 37.96458 -5.31161 14607 ft 286 kts 199°
2026-04-29 13:00 37.94562 -5.31895 14241 ft 284 kts 198°
2026-04-29 13:00 37.92676 -5.32624 13847 ft 283 kts 198°
2026-04-29 13:01 37.90801 -5.33349 13439 ft 281 kts 198°
2026-04-29 13:01 37.88939 -5.34068 13034 ft 278 kts 198°
2026-04-29 13:01 37.87095 -5.34780 12660 ft 276 kts 198°
2026-04-29 13:01 37.85269 -5.35484 12288 ft 273 kts 198°
2026-04-29 13:02 37.83456 -5.36182 11911 ft 272 kts 198°
2026-04-29 13:02 37.81657 -5.36875 11543 ft 269 kts 199°
2026-04-29 13:02 37.79871 -5.37563 11187 ft 267 kts 199°
2026-04-29 13:02 37.78100 -5.38254 10822 ft 266 kts 200°
2026-04-29 13:03 37.76447 -5.39225 10600 ft 257 kts 214°
2026-04-29 13:03 37.75061 -5.40572 10513 ft 247 kts 220°
2026-04-29 13:03 37.73761 -5.42010 10165 ft 250 kts 221°
2026-04-29 13:03 37.72463 -5.43480 9814 ft 251 kts 221°
2026-04-29 13:04 37.71164 -5.44950 9452 ft 251 kts 221°
2026-04-29 13:04 37.69862 -5.46421 9106 ft 252 kts 221°
2026-04-29 13:04 37.68559 -5.47888 8756 ft 249 kts 221°
2026-04-29 13:04 37.67277 -5.49329 8427 ft 245 kts 221°
2026-04-29 13:05 37.66012 -5.50747 8113 ft 242 kts 221°
2026-04-29 13:05 37.64758 -5.52137 7787 ft 239 kts 220°
2026-04-29 13:05 37.63515 -5.53505 7470 ft 236 kts 220°
2026-04-29 13:05 37.62282 -5.54860 7165 ft 234 kts 220°
2026-04-29 13:06 37.61055 -5.56207 6856 ft 234 kts 220°
2026-04-29 13:06 37.59824 -5.57556 6547 ft 234 kts 220°
2026-04-29 13:06 37.58601 -5.58897 6236 ft 233 kts 220°
2026-04-29 13:06 37.57381 -5.60235 5909 ft 232 kts 220°
2026-04-29 13:07 37.56164 -5.61568 5606 ft 231 kts 220°
2026-04-29 13:07 37.54886 -5.62791 5268 ft 231 kts 209°
2026-04-29 13:07 37.53385 -5.63461 5032 ft 232 kts 189°
2026-04-29 13:07 37.51789 -5.63353 4726 ft 236 kts 167°
2026-04-29 13:08 37.50273 -5.62551 4399 ft 236 kts 159°
2026-04-29 13:08 37.48800 -5.61613 4183 ft 238 kts 155°
2026-04-29 13:08 37.47270 -5.60673 4075 ft 251 kts 163°
2026-04-29 13:08 37.45567 -5.60273 3946 ft 248 kts 185°
2026-04-29 13:09 37.43961 -5.60784 3772 ft 233 kts 209°
2026-04-29 13:09 37.42801 -5.62093 3607 ft 222 kts 236°
2026-04-29 13:09 37.42161 -5.63818 3390 ft 219 kts 249°
2026-04-29 13:09 37.41886 -5.65711 3062 ft 221 kts 264°
2026-04-29 13:10 37.41872 -5.67587 2963 ft 208 kts 266°
2026-04-29 13:10 37.41878 -5.69410 2936 ft 209 kts 266°
2026-04-29 13:10 37.41866 -5.71241 2708 ft 209 kts 265°
2026-04-29 13:10 37.41855 -5.72989 2442 ft 191 kts 266°
2026-04-29 13:11 37.41850 -5.74602 2144 ft 177 kts 265°
2026-04-29 13:11 37.41845 -5.76078 1915 ft 160 kts 265°
2026-04-29 13:11 37.41840 -5.77405 1724 ft 145 kts 264°
2026-04-29 13:11 37.41835 -5.78635 1532 ft 139 kts 264°
2026-04-29 13:12 37.41829 -5.79856 1345 ft 141 kts 264°
2026-04-29 13:12 37.41824 -5.81092 1153 ft 142 kts 265°
2026-04-29 13:12 37.41819 -5.82327 929 ft 140 kts 266°
2026-04-29 13:12 37.41838 -5.83562 761 ft 143 kts 265°
2026-04-29 13:13 37.41820 -5.84792 583 ft 141 kts 265°
2026-04-29 13:13 37.41810 -5.86030 376 ft 141 kts 266°
2026-04-29 13:13 37.41803 -5.87261 172 ft 140 kts 267°
2026-04-29 13:13 37.41796 -5.88418 110 ft 115 kts 269°
2026-04-29 13:14 37.41794 -5.89187 103 ft 62 kts 269°
2026-04-29 13:14 37.41794 -5.89502 102 ft 10 kts 270°
2026-04-29 13:14 37.41794 -5.89582 101 ft 11 kts 270°
2026-04-29 13:14 37.41793 -5.89688 101 ft 12 kts 272°
2026-04-29 13:15 37.41844 -5.89801 100 ft 18 kts 335°
2026-04-29 13:15 37.41920 -5.89840 101 ft 17 kts 337°
2026-04-29 13:15 37.41991 -5.89877 101 ft 12 kts 337°
2026-04-29 13:15 37.42075 -5.89923 99 ft 14 kts 337°
2026-04-29 13:16 37.42134 -5.89921 98 ft 4 kts 45°
2026-04-29 13:16 37.42174 -5.89870 97 ft 12 kts 44°
2026-04-29 13:16 37.42235 -5.89795 98 ft 12 kts 43°
2026-04-29 13:16 37.42260 -5.89788 99 ft 2 kts 332°
2026-04-29 13:17 37.42268 -5.89798 97 ft 2 kts 313°
2026-04-29 13:17 37.42279 -5.89812 97 ft 3 kts 314°
2026-04-29 13:17 37.42294 -5.89831 99 ft 3 kts 315°
2026-04-29 13:17 37.42299 -5.89838 100 ft 0 kts 315°